User: anonymous   Login
Location: Brookfield Center
(41.2406°N, 80.5579°W)
Time: 12:08:47
(UTC+00:00)
Language:

NOSS 2-2 (C) - Orbit

View from above orbital plane
View from above orbital plane
View from above satellite
View from above satellite

Ground track
Ground track

The orbit data is extracted from the following two-line orbital elements,

1 21799U 91076C   20087.77849504 0.00000262  00000-0  52525-4 0    08
2 21799  63.3320 354.9861 0834871  37.3694 322.6305 13.41308248    01
Epoch (UTC): 27 March 2020 18:41:01
Eccentricity: 0.0834871
inclination: 63.3320°
perigee height: 480 km
apogee height: 1729 km
right ascension of ascending node: 354.9861°
argument of perigee: 37.3694°
revolutions per day: 13.41308248
mean anomaly at epoch: 322.6305°
orbit number at epoch: 0

The dashed part of the orbit path shows where the satellite is in the earth's shadow,  

DLR